Weather History for KLCH - December, 2012

Change the Weather History Date:

Saturday, December 8, 2012

  Actual Average Record
Temperature  
Mean Temperature 71 °F 55 °F  
Max Temperature 79 °F 65 °F 82 °F (1966)
Min Temperature 63 °F 45 °F 25 °F (1910)
Degree Days  
Heating Degree Days 0 11  
Month to date heating degree days 2 79  
Since 1 July heating degree days 208 286  
Cooling Degree Days 6 1  
Month to date cooling degree days 27 8  
Year to date cooling degree days 3211 2797  
Growing Degree Days 21 (Base 50)    
Moisture  
Dew Point 64 °F    
Average Humidity 78    
Maximum Humidity 93    
Minimum Humidity 62    
Precipitation  
Precipitation T in 0.15 in 3.75 in (1935)
Month to date precipitation 0.93 1.18  
Year to date precipitation 68.12 53.99  
Snow  
Snow 0.00 in 0.00 in 0.00 in ()
Month to date snowfall 0.0 0.0  
Since 1 July snowfall 0.0 0.0  
Snow Depth 0.00 in    
Sea Level Pressure  
Sea Level Pressure 29.93 in    
Wind  
Wind Speed 8 mph (SSE)    
Max Wind Speed 16 mph    
Max Gust Speed 24 mph    
Visibility 10 miles    
Events Rain    
T = Trace of Precipitation, MM = Missing Value Source: NWS Daily Summary

Daily Weather History Graph

Daily Weather History Graph

Search for Another Location

Airport or City:

Trip Planner

Search our weather history database for the weather conditions in past years. The results will help you decide how hot, cold, wet, or windy it might be!

Date:

Astronomy

Dec. 08, 2012 Rise Set
Actual Time 6:57 AM CST 5:12 PM CST
Civil Twilight 6:30 AM CST 5:39 PM CST
Nautical Twilight 6:01 AM CST 6:09 PM CST
Astronomical Twilight 5:31 AM CST 6:38 PM CST
Moon 1:40 AM CST (12/8) 1:27 PM CST (12/8)
Length of Visible Light 11h 08m
Length of Day
10h 15m
Waning Crescent, 28% of the Moon is Illuminated
Dec 8
Waning Crescent
Dec 13
New
Dec 19
First Quarter
Dec 28
Full
Jan 4
Last Quarter

Hourly Weather History & Observations

Time (CST) Temp. Dew Point Humidity Pressure Visibility Wind Dir Wind Speed Gust Speed Precip Events Conditions
12:53 AM 64.9 °F 62.1 °F 90% 29.92 in 10.0 mi SE 5.8 mph - N/A   Overcast
1:53 AM 63.0 °F 61.0 °F 93% 29.91 in 9.0 mi SSE 4.6 mph - N/A   Overcast
2:53 AM 64.9 °F 62.1 °F 90% 29.92 in 10.0 mi SSE 5.8 mph - N/A   Overcast
3:53 AM 64.9 °F 62.1 °F 90% 29.91 in 10.0 mi SSE 8.1 mph - N/A   Mostly Cloudy
4:53 AM 66.2 °F 62.6 °F 88% 29.90 in 10.0 mi SSE 4.6 mph - N/A   Overcast
5:53 AM 64.4 °F 62.6 °F 94% 29.91 in 10.0 mi SSE 3.5 mph - N/A Rain Light Rain
6:53 AM 68.0 °F 63.0 °F 84% 29.95 in 10.0 mi South 8.1 mph - 0.00 in   Overcast
7:53 AM 68.0 °F 64.0 °F 87% 29.96 in 10.0 mi South 8.1 mph - N/A   Scattered Clouds
8:53 AM 69.1 °F 64.9 °F 87% 29.98 in 10.0 mi South 8.1 mph - N/A   Overcast
9:53 AM 71.1 °F 66.0 °F 84% 29.99 in 10.0 mi South 9.2 mph - N/A   Overcast
10:53 AM 73.0 °F 64.9 °F 76% 29.98 in 10.0 mi SSE 13.8 mph 18.4 mph N/A   Overcast
11:53 AM 75.0 °F 64.9 °F 71% 29.96 in 10.0 mi SSE 15.0 mph - N/A   Scattered Clouds
12:53 PM 77.0 °F 66.0 °F 69% 29.92 in 10.0 mi SSE 15.0 mph 20.7 mph N/A   Partly Cloudy
1:53 PM 78.1 °F 64.9 °F 64% 29.90 in 10.0 mi South 16.1 mph 24.2 mph N/A   Partly Cloudy
2:53 PM 77.0 °F 64.9 °F 66% 29.90 in 10.0 mi South 9.2 mph 18.4 mph N/A   Mostly Cloudy
3:01 PM 77.0 °F 64.4 °F 65% 29.88 in 10.0 mi South 13.8 mph 19.6 mph N/A   Mostly Cloudy
3:42 PM 77.0 °F 64.4 °F 65% 29.88 in 10.0 mi South 11.5 mph 18.4 mph N/A   Scattered Clouds
3:53 PM 77.0 °F 64.0 °F 64% 29.90 in 10.0 mi South 10.4 mph 21.9 mph N/A   Partly Cloudy
4:53 PM 73.9 °F 64.9 °F 73% 29.91 in 10.0 mi South 5.8 mph - N/A   Clear
5:53 PM 70.0 °F 64.0 °F 81% 29.92 in 10.0 mi South 6.9 mph - N/A   Clear
6:53 PM 66.2 °F 62.6 °F 88% 29.91 in 10.0 mi SSE 6.9 mph - N/A   Clear
7:53 PM 66.9 °F 64.0 °F 90% 29.94 in 10.0 mi SSE 6.9 mph - N/A   Clear
8:53 PM 64.9 °F 63.0 °F 93% 29.95 in 10.0 mi SSE 5.8 mph - N/A   Clear
9:53 PM 64.0 °F 62.1 °F 93% 29.95 in 9.0 mi SE 5.8 mph - N/A   Clear
10:53 PM 64.0 °F 62.1 °F 93% 29.95 in 8.0 mi SE 6.9 mph - N/A   Clear
11:53 PM 63.0 °F 61.0 °F 93% 29.94 in 7.0 mi SE 4.6 mph - N/A   Clear